Location: München
(48.1351°N, 11.5820°E)
Time: 22:35:40
(UTC+01:00)

ISS - Pass Details

Date: 25 January 2020
Orbit: 415 x 423 km, 51.6° (Epoch: 25 February)

Event Time Altitude Azimuth Distance (km) Brightness Sun altitude
Rises 17:32:11 0° 223° (SW) 2,369 1.5 -5.5°
Reaches altitude 10° 17:34:22 10° 215° (SW) 1,506 0.1 -5.8°
Maximum altitude 17:37:31 38° 146° (SE) 666 -2.8 -6.3°
Drops below altitude 10° 17:40:42 10° 77° (ENE) 1,511 -1.6 -6.8°
Enters shadow 17:40:56 - 76° (ENE) 1,602 -1.5 -6.8°
